Current Version              Previous Version:    01  02  03  04  05  06  07  08  09  10  11  12  13  14  15  16  17  18  19  20  21  22  23  24  25  26  27  28  29  30  
   31  32  33  34  35  36  37  38  39  40  41  42  43  44  45  46  47  48  49  50  51  52  53  54  55  56  57  58  59  60  

[Printable]
684
ASUS44 KFWD 250810
RWRTX
NORTH TEXAS HOURLY WEATHER ROUNDUP
NATIONAL WEATHER SERVICE FORT WORTH TX
200 AM CST SUN JAN 25 2015

NOTE: "FAIR" INDICATES FEW OR NO CLOUDS BELOW 12,000 FEET WITH NO
SIGNIFICANT WEATHER AND/OR OBSTRUCTIONS TO VISIBILITY.

TXZ118-119-250900-
DALLAS/FORT WORTH METROPLEX

CITY           SKY/WX    TMP DP  RH WIND       PRES   REMARKS
DFW AIRPORT    PTCLDY    41  34  76 SW9       29.94F WCI  35
DALLAS LOVE    PTCLDY    46  36  68 SW5       29.96F
FTW MEACHAM    CLEAR     44  34  67 SW5       29.95F
DAL-EXECUTIVE  CLEAR     52  35  52 SW8       29.95F
FTW-ALLIANCE   FAIR      40  34  79 SW8       29.94F WCI  34
FTW-SPINKS     CLEAR     46  36  67 SW3       29.98S
ARLINGTON      CLEAR     41  33  73 S3        29.96F
GRAND PRAIRIE  CLEAR     43  36  77 S5        29.98F
ADDISON        CLEAR     46  35  67 S3        29.97F
MESQUITE       CLEAR     38  33  82 S5        29.97F WCI  34
LANCASTER      CLEAR     43  32  65 CALM      29.98S
$$

TXZ091>094-102>105-117-120-121-131>134-250900-
NORTH CENTRAL TEXAS

CITY           SKY/WX    TMP DP  RH WIND       PRES   REMARKS
SHRMAN/DENISON PTCLDY    43  38  84 SW8       29.94F WCI  38
GAINESVILLE    PTCLDY    38  34  85 CALM      29.95S
BOWIE          CLEAR     48  36  63 W8        29.95R
BRIDGEPORT     CLEAR     44  37  77 SW7       29.96F
DECATUR        CLEAR     45  34  65 SW7       29.94F
DENTON         FAIR      39  34  82 S5        29.94F WCI  36
MCKINNEY       CLEAR     38  33  82 S3        29.95S
GREENVILLE     CLEAR     45  34  65 SW5       29.96S
ROCKWALL       CLEAR     44  36  71 SW8       29.95F WCI  40
TERRELL        CLEAR     41  33  73 SW3       29.98F
WAXAHACHIE     CLEAR     45  37  71 SW6       29.98F
CLEBURNE       CLEAR     45  37  76 SW6       29.99F
GRANBURY       CLEAR     37  33  88 CALM      29.99S
$$

TXZ083>090-098>101-113>116-127>130-139>142-154-155-250900-
WESTERN NORTH TEXAS

CITY           SKY/WX    TMP DP  RH WIND       PRES   REMARKS
WICHITA FALLS  CLEAR     44  35  70 W15       29.94S WCI  37
WF-KICKAPOO    CLEAR    N/A N/A N/A W10       29.97S
VERNON         PTCLDY    40  31  70 NW10      29.99R WCI  33
ABILENE        CLEAR     40  33  76 SW8       30.02S WCI  34
ABILENE-DYESS  CLEAR     46  32  58 W13       30.01S
BRECKENRIDGE   CLEAR     46  36  68 SW7       29.98S
GRAHAM         CLEAR     39  36  87 CALM      29.96S
MINERAL WELLS  CLEAR     42  34  73 SW7       29.95F WCI  38
STEPHENVILLE   CLEAR     48  37  64 W9        30.01F
COMANCHE       CLEAR     48  38  67 W10G16    30.02S
BROWNWOOD      CLEAR     45  36  70 CALM      30.04S
COLEMAN        CLEAR     47  37  68 W9        30.03S
BRADY          CLEAR     39  34  81 W7        30.04F WCI  34
$$

TXZ143>147-156>162-174-175-250900-
CENTRAL TEXAS

CITY           SKY/WX    TMP DP  RH WIND       PRES   REMARKS
WACO           CLEAR     38  35  89 SW7       30.02S WCI  33
WACO-MCGREGOR  CLEAR     39  30  70 SW5       30.03S WCI  36
HILLSBORO      CLEAR     38  32  79 S3        30.00S
CORSICANA      CLEAR     42  37  82 SW9       30.00S WCI  37
MEXIA          CLEAR     44  37  74 SW7       30.00S
HEARNE         CLEAR     40  35  84 CALM      30.04S
CAMERON        CLEAR     46  38  73 SW10      30.03S
TEMPLE         CLEAR     41  34  75 CALM      30.02S
KILLEEN        CLEAR     50  36  58 VRB2      30.02S
KILLEEN-SKYLRK CLEAR     46  34  61 SW7       30.01S
FORT HOOD      CLEAR     47  36  64 MISG      30.02R
GATESVILLE     CLEAR     45  36  70 NW5       30.04F
HAMILTON       CLEAR     47  37  67 W9        30.02S
LAMPASAS       CLEAR     46  37  70 CALM      30.03F
$$

TXZ095>097-106>112-122>126-135>138-148>153-164>167-250900-
EAST TEXAS

CITY           SKY/WX    TMP DP  RH WIND       PRES   REMARKS
PARIS          CLEAR     39  34  81 SW7       29.94F WCI  34
SULPHUR SPRNGS CLEAR     43  35  72 SW7       29.98R WCI  39
MOUNT PLEASANT CLEAR     37  33  84 S3        29.97F
GILMER         CLEAR     42  35  75 S5        29.97R WCI  39
MINEOLA        CLEAR     46  37  71 SW5       29.98S
TYLER          CLEAR     46  36  68 SW9       29.97S
LONGVIEW       CLEAR     42  35  76 SW7       29.97F WCI  38
MARSHALL       CLEAR     38  35  89 CALM      29.99F
ATHENS         CLEAR     34  32  93 SE3       29.99S
PALESTINE      CLEAR     39  35  87 CALM      30.02S
HENDERSON      CLEAR     36  34  93 CALM      29.99F
NACOGDOCHES    CLEAR     43  34  70 SW3       30.01F
LUFKIN         CLEAR     40  34  79 CALM      30.02F
$$

SUPPLEMENTAL OBSERVATIONS (CENTRAL)

CITY           SKY/WX    TMP DP  RH WIND       PRES   REMARKS
CADDO GRASSLND   N/A     45  37  76 SW6         N/A
PAT MAYSE LAKE   N/A     45  37  76 S8          N/A
GREENVILLE       N/A     43  34  70 SW6         N/A  WCI  39
CEDAR HILL       N/A     46  34  61 S3          N/A
MCGREGOR         N/A     39  36  87 SW3         N/A
$$

SUPPLEMENTAL OBSERVATIONS (WEST)

CITY           SKY/WX    TMP DP  RH WIND       PRES   REMARKS
MILLERS CREEK    N/A     37  34  87 SW8         N/A  WCI  31
LBJ GRASSLAND    N/A     43  34  70 CALM        N/A
GRANBURY         N/A     36  32  87 CALM        N/A
HAMBY            N/A     39  32  75 S7          N/A  WCI  34
$$

SUPPLEMENTAL OBSERVATIONS (EAST)

CITY           SKY/WX    TMP DP  RH WIND       PRES   REMARKS
CLARKSVILLE      N/A     39  34  81 SW2         N/A
TEXARKANA        N/A     30  28  93 CALM        N/A
LINDEN           N/A     43  36  75 SW1         N/A
GILMER           N/A     43  36  75 SW6         N/A  WCI  39
HENDERSON        N/A     37  32  81 S1          N/A
LUFKIN           N/A     36  32  87 MISG        N/A
N SABINE NF      N/A     37  34  87 MISG        N/A
S SABINE NF      N/A     37  34  87 CALM        N/A
$$

SUPPLEMENTAL OBSERVATIONS ARE A COLLECTION OF AUTOMATED INSTRUMENTS
THAT ARE MAINTAINED BY A VARIETY OF FEDERAL AND STATE AGENCIES.
CERTAIN ELEMENTS...SUCH AS HUMIDITY VALUES AND SUSTAINED WIND
SPEEDS...MAY BE APPROXIMATED.